This is the latest recevied weather packets stored in our database for station/object S57D-6. If no packets are shown the sender has not sent any weather packets the latest 10 day(s).
| Time | Temp. | Humidity | Pressure | Rain* | Wind** | Luminosity | Snow |
|---|---|---|---|---|---|---|---|
| 1777532408 | 9.44° C | 53% | 1026.2 hPa | 0 mm | - | - | - |
| 1777532108 | 9.44° C | 57% | 1026.2 hPa | 0 mm | - | - | - |
| 1777531807 | 8.89° C | 57% | 1026.2 hPa | 0 mm | - | - | - |
| 1777531509 | 8.89° C | 59% | 1026.2 hPa | 0 mm | - | - | - |
| 1777531207 | 8.89° C | 59% | 1026.2 hPa | 0 mm | - | - | - |
| 1777530907 | 8.89° C | 63% | 1026.2 hPa | 0 mm | - | - | - |
| 1777530606 | 8.33° C | 63% | 1026.2 hPa | 0 mm | - | - | - |
| 1777530006 | 7.78° C | 67% | 1026.2 hPa | 0 mm | - | - | - |
| 1777529405 | 7.22° C | 72% | 1026.1 hPa | 0 mm | - | - | - |
| 1777529106 | 7.22° C | 73% | 1026 hPa | 0 mm | - | - | - |
| 1777528804 | 6.67° C | 74% | 1026 hPa | 0 mm | - | - | - |
| 1777528505 | 6.11° C | 76% | 1025.9 hPa | 0 mm | - | - | - |
| 1777528204 | 6.11° C | 77% | 1026 hPa | 0 mm | - | - | - |
| 1777527905 | 5.56° C | 78% | 1025.9 hPa | 0 mm | - | - | - |
| 1777527603 | 5° C | 80% | 1025.8 hPa | 0 mm | - | - | - |
| 1777527304 | 4.44° C | 81% | 1025.8 hPa | 0 mm | - | - | - |
| 1777527003 | 3.89° C | 82% | 1025.7 hPa | 0 mm | - | - | - |
| 1777526703 | 3.33° C | 82% | 1025.6 hPa | 0 mm | - | - | - |
| 1777526402 | 3.33° C | 82% | 1025.7 hPa | 0 mm | - | - | - |
| 1777526103 | 2.78° C | 82% | 1025.6 hPa | 0 mm | - | - | - |
| 1777525802 | 2.78° C | 82% | 1025.6 hPa | 0 mm | - | - | - |
| 1777525201 | 2.78° C | 81% | 1025.6 hPa | 0 mm | - | - | - |
| 1777524902 | 2.78° C | 80% | 1025.5 hPa | 0 mm | - | - | - |
| 1777524601 | 2.78° C | 80% | 1025.6 hPa | 0 mm | - | - | - |
| 1777524301 | 3.33° C | 79% | 1025.6 hPa | 0 mm | - | - | - |
* Rain latest hour (hover to see other rain measurements)
** Current wind speed in m/s (hover to see current wind gust speed)